Location: Koslow
(50.3020°N, 18.5663°E)
Time: 07:10:20
(UTC+00:00)

STARLINK-1357 - Pass Details

Date: 07 October 2020
Orbit: 548 x 551 km, 53.0° (Epoch: 31 October)

Event Time Altitude Azimuth Distance (km) Brightness Sun altitude
Exits shadow 02:11:30 50° 47° (NE) 711 4.4 -26.4°
Drops below altitude 10° 02:14:53 10° 84° (E) 1,830 7.2 -25.9°
Sets 02:17:09 0° 88° (E) 2,724 8.3 -25.6°
